Dewpoint
54 56 58 59 60 61 61 62 62 62 63 65 65 66 67 68 68 69 70 70 70 70 71 71 71 71 71 70 71 71 72 72 72 72 71 71 71 72 72 72 71 72 72 73 73 73 73 73 73 73 74 75 75 76 76 76 76 76 76 75 75 74 74
54 56 57 58 59 60 61 62 62 61 64 65 66 66 66 68 69 69 70 70 70 70 71 71 71 72 71 71 71 72 72 72 72 72 72 72 72 72 72 72 72 71 73 73 73 74 74 73 73 73 74 75 74 75 76 76 76 76 75 76 75 75 74
53 55 56 57 59 59 61 62 62 62 64 65 66 66 66 67 68 69 70 70 70 70 71 71 71 71 72 71 71 72 72 72 72 72 72 71 71 71 72 73 72 72 72 73 73 74 74 73 73 72 74 74 74 74 75 76 76 76 75 76 75 75 74
52 53 55 57 59 60 61 61 62 62 64 65 65 66 66 67 68 70 71 71 70 71 71 71 71 71 72 71 71 72 72 72 72 72 72 71 71 70 71 73 73 73 73 73 74 73 74 74 73 72 75 74 74 74 74 75 76 76 75 76 75 75 75
51 52 53 56 57 59 60 61 62 62 63 64 65 66 66 66 68 69 71 71 71 71 71 71 71 71 72 72 72 72 72 72 72 72 72 72 71 71 70 70 73 73 73 73 74 74 73 74 73 73 73 74 74 74 74 74 76 76 75 76 75 75 75
51 51 53 56 57 58 59 60 62 62 62 63 65 65 65 65 67 69 70 72 71 71 71 71 72 72 72 72 72 72 72 72 73 73 73 72 71 71 70 69 71 73 74 73 74 74 74 73 73 73 73 73 74 74 74 74 75 75 75 76 75 74 74
52 52 54 55 56 57 57 59 60 61 62 63 64 65 65 65 67 68 70 71 72 72 71 71 72 72 72 72 72 72 72 72 72 72 72 72 71 71 70 70 70 71 73 74 73 73 73 73 73 72 73 73 73 73 74 74 74 75 75 75 75 75 75
52 52 53 55 55 56 56 58 59 60 61 62 63 65 65 65 67 68 69 70 72 72 72 71 72 72 72 73 72 72 72 71 71 72 72 72 71 71 70 70 70 70 71 73 74 73 72 73 73 73 72 72 73 73 74 74 74 74 75 75 75 75 75
47 52 52 53 55 56 56 58 59 60 61 61 62 65 66 66 66 68 69 70 71 72 72 72 72 72 72 73 73 72 72 72 72 72 72 71 71 70 70 70 69 70 70 71 73 73 72 71 73 73 73 72 73 73 74 74 74 74 75 75 75 74 74
44 52 52 53 54 56 56 58 60 61 61 61 63 65 67 67 67 67 68 70 71 72 72 72 72 72 72 72 73 72 72 72 72 71 71 71 70 70 70 69 69 70 70 70 71 73 73 72 71 73 74 73 72 72 73 74 74 74 74 75 75 74 74
45 54 54 53 54 55 57 57 59 61 62 62 63 63 66 67 67 66 67 69 71 72 72 73 72 72 72 72 72 72 72 72 72 71 71 71 70 70 70 69 69 69 69 70 70 71 72 73 72 71 74 74 73 72 72 73 74 74 74 74 75 74 74
45 53 54 54 55 55 56 58 59 61 62 63 64 64 66 67 67 66 66 67 70 72 72 73 73 72 71 72 72 72 72 72 71 71 71 71 70 69 69 69 69 69 70 70 70 71 72 72 72 71 71 73 74 73 73 73 74 74 74 74 74 74 74
45 51 53 54 55 55 56 59 59 61 63 64 64 64 65 66 66 66 67 67 68 71 73 73 73 72 72 71 71 72 71 71 71 71 71 70 70 69 69 68 68 69 70 70 70 70 71 72 72 72 71 72 73 74 74 74 74 74 74 74 74 74 74
55 48 50 52 54 55 57 60 60 62 64 64 64 64 65 66 67 67 66 66 67 69 71 72 73 72 72 72 71 71 71 71 71 71 71 70 70 69 69 68 67 68 70 70 70 70 70 71 72 72 72 72 72 73 75 75 74 74 74 74 73 74 74
46 45 54 54 56 57 59 60 62 63 64 65 65 64 66 67 67 67 67 67 67 68 69 71 72 72 72 71 71 71 71 71 71 71 71 71 70 69 69 69 68 68 69 70 70 70 70 71 71 71 72 72 73 73 74 75 75 74 74 74 73 73 74
45 51 54 56 58 59 60 61 62 63 63 64 64 65 66 67 68 67 67 67 67 67 68 70 71 71 71 71 71 71 71 71 70 70 71 71 70 70 69 69 69 69 69 70 70 70 70 70 71 71 72 72 73 73 73 74 75 72 67 68 73 73 73
49 51 52 55 60 62 61 61 63 63 64 65 65 65 66 68 68 68 67 67 67 67 67 68 70 70 70 71 71 71 71 70 70 70 70 71 71 70 70 69 69 69 69 70 71 71 71 70 70 70 71 72 72 73 73 74 73 67 65 65 67 72 73
50 52 53 57 63 66 66 66 66 65 64 65 66 66 65 67 68 68 67 67 67 67 67 67 69 70 70 70 71 72 72 71 70 70 70 70 70 71 70 69 69 69 69 70 71 72 71 71 70 70 71 72 72 73 73 74 68 65 64 64 64 67 73
52 55 59 63 65 65 66 68 69 69 67 66 66 66 66 66 67 67 67 67 68 68 67 67 67 69 70 70 71 72 72 71 71 71 70 70 70 71 71 70 69 69 69 69 70 72 72 72 71 71 71 72 72 72 72 73 68 64 63 64 64 64 68
45 54 60 63 65 66 65 66 69 69 68 69 68 68 68 68 67 67 67 67 67 67 67 67 67 68 70 70 70 72 72 72 71 71 71 71 70 70 71 70 69 69 69 69 70 71 72 72 72 72 71 71 72 72 72 72 68 63 62 62 62 63 65
59 64 65 65 64 63 63 65 68 70 69 65 64 68 66 66 66 68 66 66 67 67 67 67 67 68 70 70 70 72 72 72 72 71 72 72 71 71 71 71 70 70 69 69 69 69 71 72 72 72 72 71 70 71 72 72 66 63 61 61 61 62 63
62 66 68 70 70 71 70 70 69 69 70 71 68 63 59 64 64 64 65 65 66 68 67 68 67 67 71 70 70 72 73 73 72 72 72 72 72 71 71 71 71 70 70 69 69 69 70 71 72 72 72 72 71 70 71 72 65 62 61 60 60 61 68
63 65 66 66 67 68 69 69 68 68 68 66 66 64 64 63 62 63 63 64 64 67 69 69 68 67 71 71 70 71 73 73 73 72 72 73 72 72 71 71 72 71 71 70 69 69 69 69 70 71 72 72 72 71 70 71 66 61 60 59 59 61 69
60 63 64 63 64 65 67 68 69 70 70 68 69 70 70 68 70 71 75 67 64 65 67 69 69 69 69 72 71 71 73 74 73 73 73 73 73 73 72 72 72 72 72 70 70 69 69 69 70 70 71 71 72 72 71 71 67 59 58 58 58 62 70
61 61 61 62 64 66 66 67 70 71 72 72 71 72 72 73 74 73 73 74 72 65 65 66 67 70 70 72 72 72 74 74 74 73 73 73 73 73 73 73 73 73 73 72 71 70 70 70 70 70 71 71 72 69 71 71 69 58 57 56 57 62 71
62 62 60 60 63 66 66 70 71 70 70 70 71 73 71 73 72 73 75 76 74 71 65 64 66 69 70 72 73 73 74 74 75 74 74 74 74 74 74 74 74 74 74 73 73 72 71 71 71 70 70 71 72 72 72 72 72 68 55 55 55 58 70
62 62 62 64 67 69 66 69 69 69 70 72 72 72 73 75 75 73 73 75 74 73 72 67 67 70 71 72 74 73 74 75 75 75 74 74 75 75 75 75 74 74 74 74 73 73 72 72 71 71 71 71 71 71 72 73 73 71 55 54 54 56 61
63 63 63 66 70 68 65 69 68 68 70 71 71 71 72 74 74 75 74 74 74 74 72 72 69 70 71 72 73 73 74 75 75 75 76 75 76 76 76 76 75 75 75 74 74 73 73 72 72 71 71 72 72 72 72 72 69 73 57 54 53 54 56
63 63 63 64 64 65 65 65 70 69 71 70 71 72 73 72 73 75 73 75 76 77 78 77 73 71 71 72 73 73 74 74 75 76 77 76 76 76 76 76 76 75 75 75 74 74 73 73 72 72 71 71 73 73 74 74 73 65 66 54 53 53 54
63 63 63 62 63 64 65 65 67 70 72 72 72 72 72 72 74 76 74 74 75 76 77 77 77 74 72 71 72 74 74 75 76 76 77 77 77 76 76 76 76 75 75 75 74 74 74 73 73 73 72 71 71 73 74 75 75 68 63 60 53 54 54
64 64 63 63 64 66 65 65 65 69 70 69 70 71 72 71 72 73 72 72 75 75 75 76 77 76 74 73 72 74 74 75 76 76 77 77 77 77 76 76 76 75 75 75 75 74 74 74 74 73 73 72 72 72 73 74 76 76 67 59 55 54 54
64 64 65 64 65 65 65 65 65 68 68 68 69 69 71 72 71 71 71 74 73 75 75 75 76 77 76 75 74 74 76 75 76 76 77 77 77 77 77 76 76 75 76 76 75 75 74 75 75 74 74 73 73 73 73 74 74 75 74 63 58 55 54
64 65 65 64 66 67 65 67 67 68 68 69 69 70 70 71 71 72 72 73 73 74 75 76 77 77 76 76 76 75 76 76 75 76 76 77 77 77 77 77 76 76 75 76 75 75 75 75 75 74 74 74 74 74 74 74 74 73 70 68 64 62 61
65 65 65 67 68 68 68 67 68 69 68 68 69 70 70 69 69 70 72 72 72 74 75 75 76 76 76 77 77 76 75 75 78 77 76 76 76 76 77 77 77 76 75 76 75 75 75 74 74 74 74 74 74 74 74 74 68 67 67 68 69 66 64
65 65 66 67 68 69 67 67 68 68 68 67 69 69 70 69 69 69 71 72 72 73 74 76 78 76 75 76 78 76 76 76 76 75 75 75 75 74 74 76 76 76 76 74 76 75 75 75 74 74 74 73 73 73 71 65 64 63 50 57 51 64 67
65 66 66 67 68 68 68 69 69 68 67 67 68 68 67 69 70 70 70 71 71 72 73 74 75 74 72 71 71 71 74 74 74 74 74 74 74 71 67 61 50 60 72 67 61 55 55 62 71 72 66 60 58 63 68 63 61 50 46 47 45 44 45
65 65 66 67 67 67 67 68 69 70 69 68 68 68 68 68 68 69 70 70 71 72 73 72 72 71 71 70 71 71 72 73 74 75 75 75 72 70 68 65 61 49 47 55 55 50 48 48 50 55 57 60 57 55 51 50 45 44 45 44 45 45 46
65 65 66 66 67 67 67 68 68 68 69 69 70 69 69 69 69 69 70 69 70 71 72 72 71 71 71 72 71 71 71 71 72 72 73 73 72 70 67 65 63 61 51 46 49 48 47 47 48 49 50 53 55 57 54 47 44 43 43 44 44 45 44